Retour au catalogue

COSMOS 1229

ActifMilitaireLEO
NORAD 12108·PAYLOAD·🇷🇺 Russia

Lancé Dec 23, 1980 depuis Plesetsk Cosmodrome

Loading…

Prochains Passages (prochaines 24 heures)

TLE

FraisSource: Space-Track

Époque: Sep 14, 2026, 10:50 UTC

1 12108U 80102B   26257.45201543 -.00000022  00000-0 -35914-4 0  9991
2 12108  73.9909 271.7205 0032342 334.1593  95.3346 12.56124674 96628

Suivez COSMOS 1229 en temps réel avec AllMySat

Download on the App Store